Regional Weather Roundup
Issued by NWS Charleston, SC

Current Version | Previous Version | Graphics & Text | Print | Product List | Glossary On
Versions: 1 2 3 4 5 6 7 8 9 10 11 12 13 14 15 16 17 18 19 20 21 22 23 24 25 26 27 28 29 30 31 32 33 34 35 36 37 38 39 40 41 42 43 44 45 46 47 48 49 50
000 ASUS42 KCHS 200012 RWRCHS REGIONAL WEATHER ROUNDUP NATIONAL WEATHER SERVICE CHARLESTON SC 700 PM EST SUN FEB 19 2017 NOTE: "FAIR" INDICATES FEW OR NO CLOUDS BELOW 12,000 FEET WITH NO SIGNIFICANT WEATHER AND/OR OBSTRUCTIONS TO VISIBILITY. NOT ALL STATIONS ARE QUALITY CONTROLLED. USE DATA WITH CAUTION... ESPECIALLY DEWPOINT OBSERVATIONS. SCZ027-030-031-034>040-042>050-200100- ...SOUTHEAST SOUTH CAROLINA... CITY SKY/WX TMP DP RH WIND PRES REMARKS N CHARLESTON CLEAR 66 47 50 NW5 30.03R 6HR MIN TEMP: 63; 6HR MAX TEMP: 76; WATERFRONT PRK N/A 69 52 54 N6 30.00R MOUNT PLEASANT FAIR 64 48 55 NW3 30.03R JOHNS ISLAND FAIR 64 50 59 NW3 30.03R PINOPOLIS N/A 63 54 72 NW7 29.93R MONCKS CORNER FAIR 61 46 59 CALM 30.04R SUMMERVILLE FAIR 63 48 59 CALM 30.04R BEAUFORT MCAS CLEAR 63 51 65 CALM 30.04R 6HR MIN TEMP: 63; 6HR MAX TEMP: 77; BEAUFORT ARPT FAIR 64 50 59 CALM 30.03R HILTON HEAD IS CLEAR 63 55 77 CALM 30.03S WALTERBORO CLEAR 63 48 59 CALM 30.05R ALLENDALE FAIR 64 50 59 CALM 30.04R ...SOUTHERN MIDLANDS AND PEE DEE... CITY SKY/WX TMP DP RH WIND PRES REMARKS GEORGETOWN FAIR 63 48 59 CALM 30.03R KINGSTREE FAIR 63 46 55 CALM 30.03R ORANGEBURG CLEAR 67 48 50 NW3 30.04R 6HR MIN TEMP: 67; 6HR MAX TEMP: 73; BARNWELL FAIR 63 54 72 CALM 30.05R AIKEN FAIR 59 50 72 CALM 30.10R MANNING FAIR 61 48 63 MISG 30.04R COLUMBIA CLEAR 63 49 60 CALM 30.05R 6HR MIN TEMP: 63; 6HR MAX TEMP: 73; SUMTER CLEAR 64 47 52 NW5 30.02R 6HR MIN TEMP: 64; 6HR MAX TEMP: 73; FLORENCE CLEAR 64 47 53 NW5 30.03R 6HR MIN TEMP: 64; 6HR MAX TEMP: 72; MYRTLE BEACH CLEAR 64 48 55 NW5 30.02R N MYRTLE BEACH CLEAR 62 48 60 NW3 30.01R 6HR MIN TEMP: 61; 6HR MAX TEMP: 73; $$ GAZ063-065-086>088-099>101-113>116-118-119-134>141-150-200100- ...SOUTHEAST GEORGIA... CITY SKY/WX TMP DP RH WIND PRES REMARKS SAVANNAH ARPT CLEAR 64 49 57 W3 30.05R 6HR MIN TEMP: 64; 6HR MAX TEMP: 78; HUNTER AAF CLEAR 66 53 64 W5 30.02R 6HR MIN TEMP: 66; 6HR MAX TEMP: 77; FORT STEWART CLEAR 64 52 65 CALM 30.03R 6HR MIN TEMP: 64; 6HR MAX TEMP: 77; STATESBORO CLEAR 61 55 79 CALM 30.06R SYLVANIA CLEAR N/A N/A N/A CALM 30.06R CLAXTON FAIR N/A N/A N/A CALM 30.06R ...CSRA...CENTRAL AND FAR SOUTHEAST GEORGIA... CITY SKY/WX TMP DP RH WIND PRES REMARKS THOMSON CLEAR 63 56 76 CALM 30.11R AUGUSTA-BUSH CLEAR 61 49 64 W3 30.05R 6HR MIN TEMP: 61; 6HR MAX TEMP: 77; AUGUSTA-DANIEL CLEAR 67 47 48 NW3 30.06R SWAINSBORO CLOUDY 63 54 72 CALM 30.08R VIDALIA CLEAR 66 55 68 CALM 30.07S EASTMAN FAIR 64 43 46 CALM 30.10S HAZLEHURST FAIR 69 53 56 CALM 30.06R ALMA CLEAR 67 51 56 NW3 30.06R 6HR MIN TEMP: 67; 6HR MAX TEMP: 77; WAYCROSS CLEAR 70 57 63 N5 30.06R JESUP FAIR 68 54 60 CALM 30.06R BAXLEY FAIR 70 57 64 NW3 30.06R BRUNSWICK CLEAR 66 61 82 CALM 30.06R SAINT SIMONS MOCLDY 65 60 84 S8 30.05R 6HR MIN TEMP: 65; 6HR MAX TEMP: 78; $$ SCZ027-028-034-036>038-045-046-048>050-GAZ119-141-200100- ...LAKE AND SUPPLEMENTAL COASTAL OBSERVATIONS... STATION/POSITION TIME TEMP WIND PRES WAVE SWELL AIR SEA DIR/SP/G HT/PER HT/PER/DIR (UTC) (F) (DEG/KT/KT) (MB) (FT/S) (FT/S/D) WINYAH BAY 2245 69 310/ 5 1015.0 LAKE MURRAY 2320 64 CALM 1016.9R ACE BASIN NERRS NOT AVBL FORT PULASKI 2348 67 60 290/ 4/ 5 1017.4R SAPELO ISLAND 2300 66 150/ 5 1017.0 $$ ANZ835-935-AMZ111-154-330-350-352-354-370-450-454-472-200100- ...C-MAN AND BUOY OBSERVATIONS... STATION/POSITION TIME TEMP WIND PRES WAVE SWELL AIR SEA DIR/SP/G HT/PER HT/PER/DIR (UTC) (F) (DEG/KT/KT) (MB) (FT/S) (FT/S/D) BUOY 41004 2250 67 69 250/ 12/ 14 1015.4 2/ 7 2/120/ 7 BUOY 41008 2250 63 63 190/ 8/ 8 1016.7 1 FOLLY BEACH CMAN 2300 69 330/ 4/ 5 1016.9R CAPERS NEARSHORE 2308 65 60 340/ 8/ 10 1016.0R FRIPP NEARSHORE 2308 63 61 210/ 6/ 8 1016.2R STATION/POSITION TIME TEMP WIND PRES WAVE SWELL AIR SEA DIR/SP/G HT/PER HT/PER/DIR (UTC) (F) (DEG/KT/KT) (MB) (FT/S) (FT/S/D) 5E ST. MARYS GA 2330 64 N/A 1 FRYING PAN BUOY 2350 63 64 280/ 12/ 14 1015.5R 2/ 6 2/170/ 6 BUOY 41025 2350 62 67 350/ 8/ 10 1015.0R 2/ 7 2/160/ 7 CAPE LOOKOUT NC 0000 59 220/ 3/ 4 1014.7R BUOY 41002 2350 69 71 320/ 17/ 21 1014.0R 4/ 6 2/ 30/ 9 BUOY 41010 NOT AVBL ST AUGUSTINE FL 0000 66 68 150/ 6/ 7 1018.7R $$

USA.gov is the U.S. government's official web portal to all federal, state and local government web resources and services.